Regional Weather Roundup
Issued by NWS

Home | Current Version | Previous Version | Graphics & Text | Print | Product List | Glossary On
Versions: 1 2 3 4 5 6 7 8 9 10 11 12 13 14 15 16 17 18 19 20 21 22 23 24 25 26 27 28 29 30 31 32 33 34 35 36 37 38 39 40 41 42 43 44 45
000
ASUS45 KSLC 100610
RWRUT

UTAH REGIONAL WEATHER ROUNDUP
NATIONAL WEATHER SERVICE SALT LAKE CITY UT
1200 AM MDT THU JUL 10 2014

UTZ001>011-023>025-100700-

NORTHERN UTAH

CITY           SKY/WX    TMP DP  RH WIND       PRES   REMARKS
HILL AFB       CLOUDY    77  53  43 S15       30.03S
LOGAN          CLEAR     80  53  39 S12       29.99R
OGDEN          MOCLDY    79  52  38 S12       30.01S
PROVO AIRPORT  MOCLDY    73  59  60 CALM      30.05R
SALT LAKE CITY LGT RAIN  71  62  73 SE13      29.99R
VERNAL         MOCLDY    75  49  39 S10       30.09R
WENDOVER       MOCLDY    81  48  32 E9        29.98R
HEBER CITY     CLOUDY    66  55  68 CALM      30.11F
WEST JORDAN    MOCLDY    72  66  83 SE5       30.05

$$

UTZ012>022-026-027-100700-

SOUTHERN UTAH

CITY           SKY/WX    TMP DP  RH WIND       PRES   REMARKS
BRYCE CANYON   CLOUDY    60  51  72 NW3       30.30
CEDAR CITY     MOCLDY    66  52  60 CALM      30.16
MILFORD        MOCLDY    73  51  46 S12       30.08S
MOAB/CYNLANDS  CLOUDY    72  60  66 NW7       30.06R
PRICE          LGT RAIN  68  55  63 E9        30.18R
ST GEORGE      NOT AVBL

$$

REGIONAL REPORTS     COLORADO/ARIZONA

CITY           SKY/WX    TMP DP  RH WIND       PRES   REMARKS
CRAIG, CO      MOCLDY    59  46  62 E5        30.15R
GRAND JUNCTION MOCLDY    74  51  44 W8        30.09S
RIFLE          MOCLDY    69  43  38 SE9       30.12S
MONTROSE       MOCLDY    71  46  40 E9        30.17S
CORTEZ         CLEAR     71  49  45 SW10      30.20
PAGE, AZ       CLOUDY    85  50  29 VRB3      30.03S
GRAND CANYON   PTCLDY    59  56  89 CALM      30.26S
KINGMAN        CLOUDY    79  59  50 SE13      30.03S
FLAGSTAFF      MOCLDY    59  52  77 CALM      30.30S

$$

REGIONAL REPORTS    NEVADA/IDAHO/WYOMING

CITY           SKY/WX    TMP DP  RH WIND       PRES   REMARKS
LAS VEGAS, NV  MOCLDY    90  58  33 S10       29.83S
ELY            PTCLDY    60  54  80 S9        30.18
ELKO           MOCLDY    66  56  70 CALM      30.06S
POCATELLO, ID  LGT RAIN  69  59  70 S12       30.01R
BURLEY         CLOUDY    75  49  39 SW10G21   29.96
EVANSTON, WY   MOCLDY    62  48  60 S10       30.20
ROCK SPRINGS   MOCLDY    71  41  33 N5        30.16R

$$


USA.gov is the U.S. government's official web portal to all federal, state and local government web resources and services.